Location: Bois Neuf
(42.7667°N, 0.6333°E)
Time: 06:59:42
(UTC+00:00)

NOSS 2-1 (C) - Pass Details

Date: 07 June 2020
Orbit: 448 x 1755 km, 63.3° (Epoch: 29 June)

Event Time Altitude Azimuth Distance (km) Brightness Sun altitude
Exits shadow 01:12:31 31° 95° (E) 805 4.2 -22.1°
Drops below altitude 10° 01:15:02 10° 53° (NE) 1,607 6.5 -22.0°
Sets 01:17:19 0° 44° (NE) 2,551 7.9 -21.8°
